Location: Hurecourt
(47.9030°N, 6.0653°E)
Time: 21:09:13
(UTC+00:00)

Okean 2 - Pass Details

Date: 14 July 2020
Orbit: 559 x 578 km, 82.5° (Epoch: 14 August)

Event Time Altitude Azimuth Distance (km) Brightness Sun altitude
Rises 02:31:33 0° 355° (N) 2,767 7.6 -10.7°
Reaches altitude 10° 02:33:49 10° 1° (N) 1,863 6.8 -10.5°
Maximum altitude 02:37:47 47° 76° (ENE) 748 4.4 -10.1°
Drops below altitude 10° 02:41:42 10° 151° (SSE) 1,844 5.8 -9.6°
Sets 02:43:56 0° 158° (SSE) 2,734 6.6 -9.4°
